Flag for United Kingdom Weather past 2 weeks in Swindon, England, United Kingdom

Now
52 °F

Passing clouds.


Feels Like: 49 °F
Forecast: 45 / 56 °F
Wind: 7 mph from South

Location: Brize Norton

Current Time: May 31, 2015 at 12:53:52 AM

Latest Report: May 30, 2015 at 11:50 PM


Visibility: N/A

Pressure: 29.83 "Hg

Humidity: 82%

Dew point: 46 °F

Location of SwindonLocation

Historic Weather in Swindon — Graph

°F

Swindon temperature yesterday

Maximum temperature yesterday: 61 °F (at 3:50 PM)
Minimum temperature yesterday: 45 °F (at 12:50 AM)
Average temperature yesterday: 53 °F

Past Weeks' High & Low Weather Summary

 TemperatureHumidityPressure
High68 °F (May 22, 4:50 PM)100% (May 22, 7:50 AM)30.36 "Hg (May 22, 7:50 AM)
Low37 °F (May 20, 5:50 AM)34% (May 30, 4:50 PM)29.56 "Hg (May 18, 11:50 AM)
Average53 °F71%30.06 "Hg
* Reported May 15 11:50 PM — May 30 11:50 PM, Swindon, Weather by CustomWeather, © 2015

Note: Actual official high and low records may vary slightly from our data, if they occured in-between our weather recording intervals... More about our weather records

Advertising

Swindon weather history for previous 24 hours

 ConditionsComfort  
Time TempWeatherWind HumidityBarometerVisibility
11:50 PM
Sat, May 30
52 °FPassing clouds.7 mph82%29.83 "HgN/A
10:50 PM54 °FLight rain. Passing clouds.6 mph67%29.86 "HgN/A
9:50 PM54 °FSunny.5 mph67%29.89 "Hg10 mi
8:50 PM54 °FSunny.9 mph72%29.89 "Hg10 mi
7:50 PM57 °FSunny.12 mph59%29.89 "Hg10 mi
6:50 PM59 °FSunny.5 mph48%29.89 "Hg10 mi
5:50 PM61 °FSunny.7 mph42%29.92 "Hg10 mi
4:50 PM61 °FSunny.8 mph34%29.92 "Hg10 mi
3:50 PM61 °FSunny.8 mph36%29.95 "Hg10 mi
2:50 PM59 °FSunny.6 mph45%29.95 "Hg10 mi
1:50 PM57 °FSunny.7 mph44%29.95 "Hg10 mi
12:50 PM57 °FSunny.6 mph44%29.95 "Hg10 mi
11:50 AM55 °FPartly sunny.6 mph44%29.95 "HgN/A
10:50 AM54 °FPartly sunny.8 mph51%29.95 "HgN/A
9:50 AM54 °FPartly sunny.8 mph51%29.95 "HgN/A
8:50 AM52 °FPartly sunny.8 mph62%29.92 "HgN/A
7:50 AM50 °FSunny.6 mph76%29.92 "Hg10 mi
6:50 AM46 °FSunny.6 mph87%29.89 "Hg10 mi
5:50 AM45 °FClear.5 mph93%29.89 "Hg10 mi
4:50 AM45 °FClear.5 mph93%29.86 "Hg10 mi
3:50 AM45 °FClear.3 mph93%29.86 "Hg10 mi
2:50 AM45 °FClear.3 mph87%29.86 "Hg10 mi
1:50 AM45 °FClear.5 mph81%29.86 "Hg10 mi
12:50 AM45 °FClear.3 mph76%29.86 "Hg10 mi
Weather by CustomWeather, © 2015

See weather overviewHow to use our weather pages